[[{"header":{"parameterUnit":"m.s-1","parameterCategory":2,"la1":30.2991,"la2":30.254,"lo1":-89.0895,"lo2":-89.0444,"dy":0.0017,"dx":0.0017,"nx":28,"ny":28,"refTime":"2025-01-10T09:00:00:Z","depth":"0","parameterNumber":2,"parameterNumberName":"U-component_of_CURRENTS"},"data":[0,0,0,0,0,0,0,0,0,0,0,0,0,0,0,0,0,0,0,0,0,0,0,0,0,0,0,0,0,0,0,0,0,0,0,0,0,0,0,0,0,0,0,0,0,0,0,0,0,0,0,0,0,0,0,0,0,0,-0.2071,-0.2072,0,-0.2078,-0.2078,-0.2078,-0.2056,-0.2056,-0.2055,-0.2055,-0.2052,-0.2052,-0.2052,0,0,0,0,0,0,0,0,0,0,0,0,0,-0.2061,-0.2061,-0.2071,-0.2072,-0.2072,-0.2078,-0.2078,-0.2078,-0.2056,-0.2056,-0.2055,-0.2054,-0.2051,-0.2052,-0.2052,0,0,0,0,0,0,0,0,0,0,0,0,0,-0.2065,-0.2061,-0.2071,-0.2063,-0.2062,-0.2078,-0.2078,-0.2078,-0.2056,-0.2055,-0.2055,-0.2054,-0.2051,-0.2052,-0.2052,-0.2072,0,0,-0.2054,-0.2055,0,0,0,0,0,0,0,0,-0.2064,-0.2065,-0.2064,-0.2064,-0.2063,-0.2067,-0.2073,-0.2076,-0.2056,-0.2057,-0.2055,-0.2054,-0.2057,-0.2057,-0.2058,-0.2071,-0.2071,-0.2054,-0.2055,-0.2055,-0.2055,0,0,0,0,0,0,0,-0.2064,-0.2064,-0.2072,-0.2064,-0.2064,-0.2066,-0.2065,-0.2073,-0.206,-0.2057,-0.2056,-0.2059,-0.2057,-0.2058,-0.2058,-0.2071,-0.2054,-0.2055,-0.2055,-0.2055,-0.2042,-0.2041,0,0,0,0,0,0,-0.2066,-0.2064,-0.2072,-0.2073,-0.2063,-0.2067,-0.2066,-0.2065,-0.206,-0.2059,-0.206,-0.2058,-0.2057,-0.2057,-0.2058,-0.2035,-0.2055,-0.2055,-0.2056,-0.2042,-0.2041,-0.2041,0,0,0,0,0,0,-0.2066,-0.2067,-0.2072,-0.207,-0.2071,-0.2068,-0.2067,-0.2066,-0.2064,-0.2063,-0.2061,-0.2059,-0.2056,-0.2057,-0.2053,-0.2036,-0.2056,-0.2056,-0.2043,-0.2042,-0.2041,-0.2019,0,0,0,0,0,0,-0.2065,-0.2066,-0.2062,-0.207,-0.2071,-0.2074,-0.2068,-0.2066,-0.2068,-0.2066,-0.2062,-0.2061,-0.2056,-0.2052,-0.2054,-0.2038,-0.2057,-0.2044,-0.2043,-0.2041,-0.202,-0.2017,-0.2014,0,0,0,0,0,-0.2065,-0.2061,-0.2062,-0.2063,-0.2067,-0.2074,-0.2074,-0.2069,-0.2069,-0.2065,-0.206,-0.2061,-0.2044,-0.2053,-0.2055,-0.2038,-0.2045,-0.2043,-0.2041,-0.2022,-0.2018,-0.2014,0,0,0,0,0,0,-0.2056,-0.206,-0.206,-0.2058,-0.2063,-0.2071,-0.2068,-0.2072,-0.2067,-0.2064,-0.2062,-0.206,-0.2043,-0.205,-0.2059,-0.2028,-0.2041,-0.204,-0.2025,-0.2022,-0.2019,-0.2026,-0.2057,0,0,0,0,0,-0.2053,-0.2047,-0.2058,-0.2055,-0.2059,-0.2067,-0.2069,-0.2069,-0.2069,-0.2066,-0.206,-0.2052,-0.204,-0.2039,-0.2028,-0.2027,-0.2043,-0.2014,-0.201,-0.2008,-0.2014,-0.2035,-0.2035,-0.2035,-0.2035,-0.2035,0,0,-0.2048,-0.205,-0.2046,-0.2052,-0.2056,-0.2054,-0.2065,-0.2069,-0.2061,-0.2068,-0.2049,-0.2041,-0.2036,-0.2018,-0.2011,-0.2022,-0.2011,-0.2006,-0.2004,-0.2011,-0.2034,-0.2034,-0.2034,-0.2034,-0.2034,-0.2034,0,0,-0.2034,-0.2039,-0.2029,-0.2034,-0.2042,-0.2047,-0.205,-0.2055,-0.205,-0.2042,-0.2033,-0.2023,-0.201,-0.2,-0.1995,-0.1975,-0.199,-0.1964,-0.1961,-0.1981,-0.1982,-0.1983,-0.1986,-0.1988,-0.1967,-0.1967,-0.1967,0,-0.2029,-0.2017,-0.2028,-0.2023,-0.2026,-0.2043,-0.2038,-0.2037,-0.2036,-0.2039,-0.2029,-0.2012,-0.2001,-0.1991,-0.1969,-0.1968,-0.198,-0.1976,-0.1979,-0.198,-0.1981,-0.1985,-0.1987,-0.1966,-0.1966,-0.1966,-0.1966,0,-0.2005,-0.1999,-0.1998,-0.1992,-0.1997,-0.1999,-0.2006,-0.2007,-0.2007,-0.2009,-0.1999,-0.1987,-0.1983,-0.1965,-0.1958,-0.1954,-0.1958,-0.1969,-0.1992,-0.198,-0.1984,-0.1987,-0.1964,-0.1965,-0.1965,-0.1965,0,0,-0.1983,-0.1981,-0.1979,-0.1977,-0.1984,-0.1989,-0.1984,-0.1992,-0.2004,-0.1987,-0.2,-0.1959,-0.1968,-0.1962,-0.1954,-0.1962,-0.1963,-0.1966,-0.1967,-0.1975,-0.1999,-0.1846,-0.1834,-0.198,-0.198,-0.1981,-0.1992,0,-0.196,-0.1945,-0.1952,-0.1941,-0.1936,-0.1959,-0.196,-0.1971,-0.1982,-0.1998,-0.1994,-0.1995,-0.1963,-0.1967,-0.1966,-0.1973,-0.1971,-0.1958,-0.2004,-0.2005,-0.1876,-0.1832,-0.1672,-0.1655,-0.1995,-0.1995,-0.1996,0,-0.1925,-0.1922,-0.1906,-0.1925,-0.1929,-0.1926,-0.1954,-0.1959,-0.1991,-0.2006,-0.2014,-0.2022,-0.2019,-0.2003,-0.2005,-0.2001,-0.1991,-0.1992,-0.1993,-0.1863,-0.1856,-0.1724,-0.1647,-0.1536,-0.2,-0.1999,-0.1999,0,-0.1888,-0.1892,-0.1879,-0.188,-0.19,-0.1906,-0.1923,-0.1955,-0.1972,-0.2015,-0.2035,-0.2049,-0.2049,-0.2056,-0.2017,-0.203,-0.2019,-0.2049,-0.19,-0.189,-0.1767,-0.1743,-0.1592,-0.2048,-0.2048,-0.2048,-0.2048,0,-0.185,-0.1842,-0.1862,-0.185,-0.186,-0.1884,-0.1904,-0.1933,-0.1977,-0.1977,-0.2032,-0.2018,-0.2062,-0.2049,-0.2036,-0.1944,-0.203,-0.1882,-0.1875,-0.1749,-0.1724,-0.1633,-0.1643,-0.2049,-0.2048,-0.2048,-0.2048,0,-0.1796,-0.1807,-0.1802,-0.1825,-0.1834,-0.1841,-0.1885,-0.1889,-0.1952,-0.1957,-0.1968,-0.2006,-0.1966,-0.198,-0.1981,-0.1936,-0.1812,-0.1842,-0.167,-0.1638,-0.1383,-0.1399,-0.1326,-0.1297,-0.1701,-0.1697,-0.1694,0,-0.1764,-0.1748,-0.1774,-0.1762,-0.1766,-0.1786,-0.1784,-0.1858,-0.1854,-0.1905,-0.188,-0.1882,-0.1808,-0.1758,-0.1691,-0.1637,-0.1638,-0.147,-0.145,-0.1313,-0.133,-0.1385,-0.1373,-0.1292,-0.1286,-0.1281,-0.1277,0,-0.1693,-0.1705,-0.1692,-0.1673,-0.1665,-0.1673,-0.1673,-0.1679,-0.173,-0.1737,-0.1681,-0.1643,-0.157,-0.1403,-0.1341,-0.131,-0.1356,-0.1358,-0.1277,-0.1024,-0.102,-0.1005,-0.1345,-0.1231,-0.1235,-0.1239,-0.1241,-0.1243,-0.163,-0.1612,-0.1581,-0.1559,-0.1547,-0.1506,-0.1468,-0.1467,-0.1443,-0.1393,-0.143,-0.1308,-0.1165,-0.1028,-0.0991,-0.0808,-0.0995,-0.0757,-0.0801,-0.088,-0.0789,-0.0994,-0.0826,-0.0828,-0.083,-0.0832,-0.0833,0,-0.1527,-0.1497,-0.146,-0.1407,-0.1333,-0.1378,-0.1338,-0.1271,-0.1178,-0.1138,-0.1065,-0.0834,-0.0628,-0.0541,-0.0333,-0.0257,-0.0341,-0.0252,-0.0304,-0.0335,-0.0537,-0.0447,-0.0112,-0.0112,-0.0112,-0.0112,-0.0112,-0.0112,-0.1462,-0.1379,-0.1358,-0.1195,-0.1151,-0.1027,-0.0982,-0.0909,-0.0851,-0.0661,-0.0525,-0.0457,-0.0261,-0.0014,0.0164,0.0148,0.009,0.0116,0.0005,-0.0105,-0.0157,-0.0206,-0.0117,0.0281,0.0282,0.0257,0.0257,0.0257]},{"header":{"parameterUnit":"m.s-1","parameterCategory":2,"la1":30.2991,"la2":30.254,"lo1":-89.0895,"lo2":-89.0444,"dy":0.0017,"dx":0.0017,"nx":28,"ny":28,"refTime":"2025-01-10T09:00:00:Z","depth":"0","parameterNumber":3,"parameterNumberName":"V-component_of_CURRENTS"},"data":[0,0,0,0,0,0,0,0,0,0,0,0,0,0,0,0,0,0,0,0,0,0,0,0,0,0,0,0,0,0,0,0,0,0,0,0,0,0,0,0,0,0,0,0,0,0,0,0,0,0,0,0,0,0,0,0,0,0,-0.0983,-0.0981,0,-0.0896,-0.0896,-0.0895,-0.0863,-0.0863,-0.0864,-0.0864,-0.0778,-0.0776,-0.0773,0,0,0,0,0,0,0,0,0,0,0,0,0,-0.1008,-0.1009,-0.0983,-0.0981,-0.098,-0.0897,-0.0896,-0.0894,-0.0863,-0.0863,-0.0864,-0.0864,-0.0779,-0.0776,-0.0773,0,0,0,0,0,0,0,0,0,0,0,0,0,-0.0969,-0.1009,-0.0983,-0.0953,-0.095,-0.0897,-0.0895,-0.0894,-0.0863,-0.0863,-0.0864,-0.0864,-0.078,-0.0776,-0.0773,-0.0746,0,0,-0.0762,-0.076,0,0,0,0,0,0,0,0,-0.0971,-0.0968,-0.0959,-0.0955,-0.0951,-0.0889,-0.0873,-0.0844,-0.0863,-0.0898,-0.0864,-0.0864,-0.0814,-0.0808,-0.0793,-0.0742,-0.0738,-0.0761,-0.0759,-0.0757,-0.0756,0,0,0,0,0,0,0,-0.0974,-0.0971,-0.095,-0.0958,-0.0953,-0.0906,-0.0902,-0.0867,-0.0857,-0.0895,-0.0892,-0.088,-0.0812,-0.0797,-0.0791,-0.0737,-0.0761,-0.0758,-0.0756,-0.0754,-0.0645,-0.0644,0,0,0,0,0,0,-0.0988,-0.0975,-0.0953,-0.0947,-0.096,-0.0906,-0.0901,-0.091,-0.0857,-0.0849,-0.0879,-0.0878,-0.0803,-0.0795,-0.0788,-0.0756,-0.0758,-0.0754,-0.0752,-0.0646,-0.0645,-0.0644,0,0,0,0,0,0,-0.0989,-0.0987,-0.0956,-0.0956,-0.0949,-0.0906,-0.0916,-0.0908,-0.0894,-0.0845,-0.0837,-0.0872,-0.0803,-0.0793,-0.075,-0.0752,-0.0752,-0.0749,-0.0646,-0.0645,-0.0644,-0.069,0,0,0,0,0,0,-0.099,-0.0989,-0.1004,-0.0958,-0.0949,-0.093,-0.0915,-0.0907,-0.0885,-0.0883,-0.0836,-0.0829,-0.0802,-0.0756,-0.0746,-0.0747,-0.0746,-0.0647,-0.0646,-0.0645,-0.0689,-0.069,-0.0691,0,0,0,0,0,-0.0992,-0.1011,-0.1005,-0.1002,-0.0971,-0.093,-0.0921,-0.0891,-0.0885,-0.0879,-0.0841,-0.083,-0.0741,-0.0752,-0.0741,-0.0741,-0.0648,-0.0646,-0.0645,-0.0689,-0.069,-0.0691,0,0,0,0,0,0,-0.1021,-0.1008,-0.1001,-0.1014,-0.0976,-0.0924,-0.0914,-0.0893,-0.0858,-0.0858,-0.0817,-0.0805,-0.0771,-0.0743,-0.0757,-0.0703,-0.0694,-0.069,-0.0731,-0.0732,-0.0733,-0.0759,-0.0743,0,0,0,0,0,-0.1037,-0.1055,-0.1016,-0.1023,-0.1008,-0.0962,-0.0943,-0.0921,-0.0881,-0.0867,-0.0832,-0.0792,-0.0755,-0.0734,-0.0698,-0.0666,-0.0638,-0.0658,-0.0659,-0.0661,-0.0673,-0.0642,-0.0642,-0.0638,-0.0638,-0.0638,0,0,-0.1047,-0.1043,-0.1051,-0.1031,-0.1001,-0.098,-0.0952,-0.0924,-0.0911,-0.0862,-0.0836,-0.0795,-0.0746,-0.0712,-0.0694,-0.069,-0.0638,-0.0658,-0.066,-0.0672,-0.064,-0.0641,-0.0642,-0.0637,-0.0637,-0.0638,0,0,-0.1061,-0.1073,-0.1082,-0.1059,-0.1022,-0.0996,-0.099,-0.094,-0.0925,-0.0888,-0.0851,-0.0812,-0.0753,-0.0721,-0.0697,-0.068,-0.0646,-0.0664,-0.0691,-0.0661,-0.0661,-0.0662,-0.0597,-0.0592,-0.0664,-0.0664,-0.0664,0,-0.107,-0.1082,-0.1071,-0.1063,-0.1049,-0.1007,-0.0995,-0.0972,-0.0915,-0.0903,-0.0887,-0.0802,-0.0762,-0.0722,-0.0714,-0.0686,-0.065,-0.0694,-0.0665,-0.0665,-0.0665,-0.0598,-0.0592,-0.0666,-0.0666,-0.0666,-0.0666,0,-0.1075,-0.1087,-0.1084,-0.1075,-0.1059,-0.1041,-0.1008,-0.0994,-0.0971,-0.0941,-0.0901,-0.084,-0.0792,-0.0769,-0.0735,-0.0709,-0.0675,-0.0673,-0.067,-0.0668,-0.0597,-0.059,-0.0669,-0.0668,-0.0668,-0.0667,0,0,-0.1076,-0.1091,-0.1087,-0.1092,-0.1067,-0.1051,-0.1045,-0.1018,-0.1011,-0.0966,-0.0946,-0.0883,-0.0851,-0.0821,-0.0771,-0.0743,-0.0695,-0.071,-0.0707,-0.0659,-0.0599,-0.0546,-0.0532,-0.0691,-0.069,-0.069,-0.0539,0,-0.1073,-0.1087,-0.1089,-0.1089,-0.1089,-0.1072,-0.1068,-0.1046,-0.102,-0.0992,-0.0944,-0.09,-0.087,-0.0837,-0.0808,-0.072,-0.0681,-0.0734,-0.0596,-0.0591,-0.0557,-0.0524,-0.0547,-0.0413,-0.0532,-0.053,-0.0529,0,-0.1063,-0.1079,-0.1095,-0.1112,-0.1108,-0.1105,-0.1099,-0.1086,-0.1052,-0.1032,-0.0996,-0.0946,-0.0883,-0.0865,-0.074,-0.0773,-0.0695,-0.0634,-0.0627,-0.0564,-0.0525,-0.0437,-0.0394,-0.0375,-0.0517,-0.0518,-0.0519,0,-0.1065,-0.1078,-0.1103,-0.1104,-0.1113,-0.112,-0.1117,-0.1097,-0.1086,-0.105,-0.1028,-0.0963,-0.09,-0.0828,-0.0688,-0.0714,-0.0542,-0.0561,-0.0439,-0.0433,-0.0418,-0.0412,-0.0358,-0.0489,-0.0489,-0.049,-0.049,0,-0.1065,-0.1075,-0.1109,-0.1117,-0.1132,-0.1134,-0.1136,-0.1128,-0.1106,-0.1074,-0.1042,-0.0987,-0.089,-0.0775,-0.0684,-0.0515,-0.0532,-0.0434,-0.0396,-0.0428,-0.0425,-0.0381,-0.0375,-0.0484,-0.0485,-0.0486,-0.0487,0,-0.1057,-0.1083,-0.1105,-0.1131,-0.1136,-0.1143,-0.1146,-0.1135,-0.1126,-0.1081,-0.1066,-0.098,-0.0831,-0.0711,-0.0548,-0.0479,-0.0312,-0.0283,-0.0306,-0.0274,-0.0179,-0.0174,-0.0073,-0.0012,-0.0145,-0.0143,-0.0141,0,-0.1055,-0.1071,-0.1111,-0.1116,-0.1125,-0.1137,-0.1133,-0.114,-0.112,-0.1057,-0.102,-0.0888,-0.0773,-0.0519,-0.0381,-0.0206,-0.0192,-0.0119,-0.0192,-0.0165,-0.0132,-0.0155,-0.0113,-0.017,-0.0168,-0.0167,-0.0166,0,-0.1037,-0.1058,-0.1076,-0.1094,-0.11,-0.1109,-0.1103,-0.1101,-0.108,-0.1044,-0.0943,-0.0856,-0.0627,-0.0448,-0.0231,-0.0137,-0.0116,-0.0089,-0.0071,-0.0152,-0.0165,-0.0091,-0.0251,-0.0156,-0.0157,-0.0158,-0.0158,-0.0159,-0.1008,-0.1018,-0.1043,-0.105,-0.106,-0.106,-0.106,-0.1047,-0.1019,-0.0949,-0.0872,-0.0733,-0.0534,-0.0248,-0.0146,0.0003,0.0,0.0018,0.0028,0.0007,0.0035,-0.008,0.0055,0.0055,0.0055,0.0055,0.0055,0,-0.0951,-0.0971,-0.0985,-0.0999,-0.0994,-0.1017,-0.1014,-0.1002,-0.096,-0.0878,-0.0786,-0.0551,-0.0367,-0.0193,0.0018,0.0094,0.0088,0.0131,0.0062,0.0107,-0.0004,-0.0041,0.0089,0.0089,0.0089,0.0089,0.0089,0.0089,-0.0919,-0.0916,-0.0929,-0.0915,-0.0928,-0.0923,-0.0922,-0.091,-0.0862,-0.0718,-0.0575,-0.0458,-0.0176,-0.0035,0.0125,0.0146,0.0192,0.0176,0.0258,0.0121,0.0109,0.0098,0.0063,0.0213,0.0213,0.0334,0.0335,0.0336]}],[{"header":{"parameterUnit":"m.s-1","parameterCategory":2,"la1":30.2991,"la2":30.254,"lo1":-89.0895,"lo2":-89.0444,"dy":0.0017,"dx":0.0017,"nx":28,"ny":28,"refTime":"2025-01-10T09:00:00:Z","depth":"2","parameterNumber":2,"parameterNumberName":"U-component_of_CURRENTS"},"data":[0,0,0,0,0,0,0,0,0,0,0,0,0,0,0,0,0,0,0,0,0,0,0,0,0,0,0,0,0,0,0,0,0,0,0,0,0,0,0,0,0,0,0,0,0,0,0,0,0,0,0,0,0,0,0,0,0,0,-0.2249,-0.2249,0,-0.2239,-0.2238,-0.2238,-0.2187,-0.2187,-0.2186,-0.2186,-0.2164,-0.2163,-0.2163,0,0,0,0,0,0,0,0,0,0,0,0,0,-0.2179,-0.218,-0.2249,-0.2249,-0.225,-0.2239,-0.2238,-0.2237,-0.2187,-0.2187,-0.2186,-0.2185,-0.2164,-0.2163,-0.2163,0,0,0,0,0,0,0,0,0,0,0,0,0,-0.2187,-0.218,-0.2249,-0.2228,-0.2227,-0.2239,-0.2238,-0.2237,-0.2188,-0.2187,-0.2186,-0.2185,-0.2164,-0.2163,-0.2163,-0.218,0,0,-0.2163,-0.2163,0,0,0,0,0,0,0,0,-0.2187,-0.2189,-0.2231,-0.223,-0.2228,-0.2219,-0.2206,-0.222,-0.2188,-0.2196,-0.2186,-0.2185,-0.2186,-0.2184,-0.2175,-0.2179,-0.2178,-0.2163,-0.2163,-0.2163,-0.2163,0,0,0,0,0,0,0,-0.2186,-0.2189,-0.2238,-0.2232,-0.223,-0.2205,-0.2204,-0.2207,-0.2191,-0.2195,-0.2193,-0.2203,-0.2184,-0.2175,-0.2174,-0.2178,-0.2163,-0.2163,-0.2163,-0.2163,-0.2128,-0.2128,0,0,0,0,0,0,-0.2204,-0.2189,-0.2239,-0.2239,-0.2212,-0.2207,-0.2207,-0.2218,-0.2191,-0.2188,-0.2203,-0.22,-0.2176,-0.2174,-0.2173,-0.2141,-0.2163,-0.2163,-0.2163,-0.2129,-0.2128,-0.2127,0,0,0,0,0,0,-0.2203,-0.2209,-0.2239,-0.2218,-0.2221,-0.221,-0.2222,-0.2218,-0.2203,-0.2198,-0.2194,-0.2193,-0.2175,-0.2173,-0.2163,-0.2142,-0.2163,-0.2163,-0.213,-0.2129,-0.2128,-0.2111,0,0,0,0,0,0,-0.2201,-0.2208,-0.2214,-0.222,-0.2223,-0.2241,-0.2224,-0.2219,-0.2214,-0.2209,-0.2189,-0.2186,-0.2174,-0.2163,-0.2163,-0.2142,-0.2163,-0.2131,-0.213,-0.2128,-0.2112,-0.2109,-0.2106,0,0,0,0,0,-0.2198,-0.2218,-0.2214,-0.222,-0.2234,-0.2241,-0.2239,-0.2224,-0.2215,-0.2206,-0.2189,-0.2186,-0.2151,-0.2163,-0.2162,-0.2142,-0.2132,-0.213,-0.2128,-0.2114,-0.211,-0.2106,0,0,0,0,0,0,-0.2193,-0.2216,-0.2211,-0.2237,-0.2236,-0.2235,-0.223,-0.2226,-0.2206,-0.2196,-0.2186,-0.2182,-0.2157,-0.2158,-0.2171,-0.2125,-0.2137,-0.2135,-0.2126,-0.2122,-0.2119,-0.2128,-0.2163,0,0,0,0,0,-0.2197,-0.2208,-0.2225,-0.2237,-0.2239,-0.2233,-0.2232,-0.2224,-0.2216,-0.2205,-0.219,-0.217,-0.215,-0.2145,-0.2126,-0.2119,-0.2132,-0.2101,-0.2098,-0.2095,-0.2101,-0.212,-0.212,-0.2121,-0.2121,-0.2121,0,0,-0.2201,-0.2211,-0.2219,-0.2235,-0.2228,-0.2222,-0.2227,-0.2225,-0.2212,-0.2209,-0.2175,-0.216,-0.2144,-0.2118,-0.2107,-0.2118,-0.2096,-0.2093,-0.2091,-0.2098,-0.2119,-0.2119,-0.2119,-0.212,-0.212,-0.212,0,0,-0.2194,-0.2217,-0.2212,-0.2214,-0.2213,-0.2213,-0.2215,-0.221,-0.2197,-0.2179,-0.216,-0.2143,-0.2116,-0.21,-0.209,-0.2066,-0.2075,-0.2049,-0.2048,-0.2066,-0.2066,-0.2067,-0.2066,-0.2067,-0.2053,-0.2053,-0.2053,0,-0.2187,-0.2192,-0.2211,-0.2199,-0.22,-0.2209,-0.2198,-0.2191,-0.2178,-0.2178,-0.2163,-0.2125,-0.2107,-0.2089,-0.2064,-0.206,-0.2067,-0.2064,-0.2064,-0.2065,-0.2066,-0.2065,-0.2066,-0.2052,-0.2052,-0.2052,-0.2052,0,-0.2166,-0.2171,-0.217,-0.2156,-0.2159,-0.2157,-0.2161,-0.2155,-0.2146,-0.2144,-0.2124,-0.2102,-0.2087,-0.2066,-0.2053,-0.2044,-0.2043,-0.2055,-0.2079,-0.2066,-0.2064,-0.2066,-0.205,-0.2051,-0.2051,-0.2051,0,0,-0.2134,-0.2152,-0.2146,-0.214,-0.2141,-0.2141,-0.2131,-0.2135,-0.2142,-0.2118,-0.2123,-0.2072,-0.2077,-0.2065,-0.205,-0.2056,-0.2051,-0.2053,-0.2055,-0.206,-0.2078,-0.1926,-0.1913,-0.2067,-0.2067,-0.2068,-0.2067,0,-0.21,-0.2085,-0.2103,-0.2084,-0.2078,-0.2099,-0.2099,-0.2105,-0.2111,-0.212,-0.2113,-0.2104,-0.2073,-0.2066,-0.2065,-0.2062,-0.2058,-0.2049,-0.2083,-0.2083,-0.1957,-0.1911,-0.1754,-0.1727,-0.2069,-0.207,-0.207,0,-0.2053,-0.2054,-0.2038,-0.2062,-0.2063,-0.2056,-0.2074,-0.2077,-0.2107,-0.2117,-0.2122,-0.2126,-0.2118,-0.2101,-0.2095,-0.2091,-0.2076,-0.2073,-0.2074,-0.1942,-0.1934,-0.1798,-0.1718,-0.2073,-0.2073,-0.2073,-0.2072,0,-0.1999,-0.2007,-0.1997,-0.1999,-0.2025,-0.2025,-0.2038,-0.2068,-0.2079,-0.2118,-0.2131,-0.2145,-0.2135,-0.2141,-0.2096,-0.2111,-0.2088,-0.212,-0.197,-0.196,-0.1836,-0.1812,-0.2117,-0.2117,-0.2117,-0.2117,-0.2117,0,-0.1949,-0.1941,-0.1973,-0.1962,-0.1965,-0.1991,-0.2002,-0.2028,-0.2066,-0.2061,-0.212,-0.2097,-0.2143,-0.2125,-0.2111,-0.2013,-0.2098,-0.1951,-0.1942,-0.1819,-0.1795,-0.2112,-0.2111,-0.2117,-0.2117,-0.2117,-0.2117,0,-0.1882,-0.1905,-0.1898,-0.1926,-0.1935,-0.193,-0.1968,-0.1966,-0.2026,-0.2021,-0.2029,-0.2065,-0.2022,-0.2041,-0.2037,-0.1995,-0.1954,-0.1899,-0.1729,-0.1697,-0.1822,-0.1821,-0.1764,-0.1759,-0.1754,-0.175,-0.1747,0,-0.1846,-0.1834,-0.186,-0.1843,-0.1849,-0.186,-0.1854,-0.1925,-0.1914,-0.1958,-0.1925,-0.1922,-0.1849,-0.1796,-0.1736,-0.1686,-0.1791,-0.1521,-0.1511,-0.1786,-0.1784,-0.179,-0.1795,-0.1352,-0.1346,-0.134,-0.1336,0,-0.1769,-0.178,-0.1768,-0.1744,-0.1727,-0.1729,-0.1723,-0.1723,-0.1772,-0.1772,-0.1712,-0.1674,-0.1601,-0.1445,-0.1388,-0.1356,-0.1523,-0.141,-0.1754,-0.1442,-0.1389,-0.139,-0.141,-0.1291,-0.1295,-0.1299,-0.1301,-0.1303,-0.1697,-0.1674,-0.1646,-0.1615,-0.1597,-0.1552,-0.1509,-0.1504,-0.1474,-0.142,-0.145,-0.1331,-0.1328,-0.1118,-0.1054,-0.1029,-0.1161,-0.1144,-0.1164,-0.1188,-0.1116,-0.1056,-0.0882,-0.0884,-0.0886,-0.0887,-0.0889,0,-0.1583,-0.1556,-0.1513,-0.1453,-0.1375,-0.1419,-0.1374,-0.1307,-0.1211,-0.1168,-0.1091,-0.0929,-0.0793,-0.0808,-0.0669,-0.0657,-0.0716,-0.0653,-0.0726,-0.0769,-0.0808,-0.0722,-0.0381,-0.038,-0.0378,-0.0377,0,0,-0.1515,-0.143,-0.1408,-0.1239,-0.1193,-0.1068,-0.1021,-0.095,-0.0895,-0.0775,-0.0691,-0.0697,-0.0725,-0.0525,-0.0502,-0.0401,-0.0592,-0.0386,-0.0787,-0.0912,-0.095,-0.1076,-0.0988,0,0,0,0,0]},{"header":{"parameterUnit":"m.s-1","parameterCategory":2,"la1":30.2991,"la2":30.254,"lo1":-89.0895,"lo2":-89.0444,"dy":0.0017,"dx":0.0017,"nx":28,"ny":28,"refTime":"2025-01-10T09:00:00:Z","depth":"2","parameterNumber":3,"parameterNumberName":"V-component_of_CURRENTS"},"data":[0,0,0,0,0,0,0,0,0,0,0,0,0,0,0,0,0,0,0,0,0,0,0,0,0,0,0,0,0,0,0,0,0,0,0,0,0,0,0,0,0,0,0,0,0,0,0,0,0,0,0,0,0,0,0,0,0,0,-0.0747,-0.0745,0,-0.0668,-0.0668,-0.0668,-0.0676,-0.0676,-0.0677,-0.0677,-0.0603,-0.0601,-0.0598,0,0,0,0,0,0,0,0,0,0,0,0,0,-0.0692,-0.0695,-0.0747,-0.0745,-0.0743,-0.0668,-0.0668,-0.0668,-0.0676,-0.0676,-0.0677,-0.0677,-0.0604,-0.0601,-0.0598,0,0,0,0,0,0,0,0,0,0,0,0,0,-0.0684,-0.0696,-0.0747,-0.0732,-0.0729,-0.0669,-0.0668,-0.0668,-0.0676,-0.0676,-0.0677,-0.0678,-0.0605,-0.0601,-0.0598,-0.0563,0,0,-0.0587,-0.0585,0,0,0,0,0,0,0,0,-0.0685,-0.0687,-0.0736,-0.0732,-0.0729,-0.0675,-0.0621,-0.063,-0.0676,-0.0705,-0.0677,-0.0678,-0.0621,-0.0616,-0.0613,-0.056,-0.0557,-0.0586,-0.0584,-0.0583,-0.0582,0,0,0,0,0,0,0,-0.0686,-0.0689,-0.0725,-0.0733,-0.0729,-0.0655,-0.0658,-0.0623,-0.0668,-0.0703,-0.0701,-0.0678,-0.0621,-0.0616,-0.0611,-0.0556,-0.0587,-0.0583,-0.0581,-0.058,-0.0486,-0.0485,0,0,0,0,0,0,-0.0689,-0.0692,-0.0727,-0.0721,-0.0698,-0.0656,-0.0659,-0.0699,-0.0668,-0.0661,-0.0677,-0.0678,-0.0622,-0.0615,-0.0608,-0.0588,-0.0583,-0.0579,-0.0577,-0.0486,-0.0486,-0.0485,0,0,0,0,0,0,-0.0689,-0.0695,-0.073,-0.0693,-0.0691,-0.0657,-0.0701,-0.0697,-0.0701,-0.0647,-0.0642,-0.0685,-0.0622,-0.0613,-0.058,-0.0584,-0.0578,-0.0575,-0.0486,-0.0486,-0.0485,-0.0532,0,0,0,0,0,0,-0.0689,-0.0698,-0.0732,-0.0696,-0.0693,-0.07,-0.0699,-0.0694,-0.068,-0.0682,-0.0651,-0.0645,-0.0622,-0.0585,-0.0576,-0.0579,-0.0572,-0.0487,-0.0486,-0.0486,-0.0531,-0.0534,-0.0535,0,0,0,0,0,-0.0688,-0.0715,-0.0736,-0.0738,-0.0743,-0.0699,-0.0692,-0.0672,-0.068,-0.0681,-0.0659,-0.0646,-0.0575,-0.0582,-0.0571,-0.0573,-0.0487,-0.0486,-0.0486,-0.0531,-0.0533,-0.0535,0,0,0,0,0,0,-0.0693,-0.0716,-0.0739,-0.0772,-0.0744,-0.0697,-0.0688,-0.0677,-0.0662,-0.0673,-0.0636,-0.0627,-0.0602,-0.0575,-0.0584,-0.0543,-0.053,-0.0528,-0.0568,-0.057,-0.0572,-0.0592,-0.0569,0,0,0,0,0,-0.0716,-0.076,-0.0744,-0.0768,-0.0762,-0.0734,-0.0716,-0.0707,-0.0677,-0.0674,-0.0646,-0.0619,-0.0587,-0.0571,-0.054,-0.0512,-0.0483,-0.0507,-0.0509,-0.0511,-0.0519,-0.0487,-0.0487,-0.0482,-0.0482,-0.0482,0,0,-0.0716,-0.0737,-0.0758,-0.0772,-0.0759,-0.0746,-0.0728,-0.0708,-0.0697,-0.0664,-0.065,-0.0624,-0.0581,-0.0556,-0.0542,-0.0536,-0.0491,-0.051,-0.0512,-0.0519,-0.0486,-0.0487,-0.0487,-0.0482,-0.0482,-0.0482,0,0,-0.0724,-0.077,-0.0806,-0.0792,-0.0778,-0.0755,-0.0753,-0.0722,-0.0716,-0.0691,-0.0668,-0.0645,-0.0596,-0.0568,-0.0547,-0.0538,-0.0504,-0.0528,-0.0554,-0.0522,-0.0523,-0.0523,-0.0466,-0.0461,-0.0529,-0.0529,-0.0529,0,-0.0745,-0.0777,-0.0794,-0.0808,-0.0791,-0.0765,-0.0765,-0.0745,-0.0704,-0.0695,-0.0695,-0.0639,-0.0603,-0.057,-0.0569,-0.0544,-0.0514,-0.0551,-0.0527,-0.0527,-0.0526,-0.0468,-0.0462,-0.0531,-0.0531,-0.053,-0.053,0,-0.0755,-0.0785,-0.0788,-0.0823,-0.0811,-0.0793,-0.0769,-0.0762,-0.0752,-0.0727,-0.0704,-0.0665,-0.0632,-0.0617,-0.059,-0.0567,-0.0541,-0.0536,-0.0527,-0.053,-0.0467,-0.046,-0.0534,-0.0533,-0.0533,-0.0532,0,0,-0.0796,-0.0809,-0.0811,-0.0827,-0.0816,-0.0806,-0.0796,-0.0771,-0.0768,-0.0742,-0.0732,-0.0688,-0.0677,-0.0652,-0.062,-0.0595,-0.0555,-0.057,-0.0567,-0.0523,-0.0467,-0.042,-0.0407,-0.0551,-0.0551,-0.0551,-0.0417,0,-0.0803,-0.0837,-0.0834,-0.0838,-0.0842,-0.0827,-0.0812,-0.0794,-0.0779,-0.0759,-0.0728,-0.0705,-0.0684,-0.0678,-0.065,-0.0577,-0.0541,-0.059,-0.0462,-0.0457,-0.0424,-0.0399,-0.0395,-0.0275,-0.041,-0.0409,-0.0408,0,-0.08,-0.0824,-0.0852,-0.0853,-0.0856,-0.0861,-0.0856,-0.0839,-0.0806,-0.0798,-0.0784,-0.075,-0.0702,-0.0696,-0.0586,-0.0619,-0.055,-0.0499,-0.0492,-0.0432,-0.0398,-0.0296,-0.0256,-0.0395,-0.0396,-0.0397,-0.0398,0,-0.0804,-0.0822,-0.0851,-0.0852,-0.0859,-0.0879,-0.0876,-0.0859,-0.0846,-0.0831,-0.0821,-0.0769,-0.0729,-0.0662,-0.0541,-0.0567,-0.0411,-0.0429,-0.0318,-0.0313,-0.0275,-0.0268,-0.0358,-0.0359,-0.0359,-0.0359,-0.036,0,-0.0798,-0.0817,-0.0863,-0.088,-0.0898,-0.0905,-0.0919,-0.0912,-0.0896,-0.0867,-0.0846,-0.0808,-0.0722,-0.0616,-0.0535,-0.0383,-0.0396,-0.0314,-0.0279,-0.0287,-0.0283,-0.0369,-0.0373,-0.0354,-0.0355,-0.0356,-0.0357,0,-0.0798,-0.0829,-0.0855,-0.0891,-0.0907,-0.0925,-0.0945,-0.0938,-0.0934,-0.0902,-0.0896,-0.0813,-0.0682,-0.0569,-0.0421,-0.0351,-0.0231,-0.0174,-0.0173,-0.0142,-0.0158,-0.0165,-0.0057,-0.0054,-0.0052,-0.005,-0.0048,0,-0.0803,-0.0823,-0.0871,-0.0891,-0.0918,-0.0949,-0.0952,-0.0958,-0.0946,-0.089,-0.0859,-0.0743,-0.064,-0.0404,-0.0266,-0.0102,-0.0129,-0.0002,-0.0065,-0.0152,-0.0129,-0.0139,-0.0149,-0.0017,-0.0016,-0.0014,-0.0013,0,-0.0803,-0.0828,-0.0854,-0.0887,-0.0917,-0.0932,-0.0947,-0.0947,-0.0925,-0.0893,-0.0806,-0.0729,-0.0509,-0.0322,-0.0112,-0.0027,-0.0038,0.0031,-0.0042,-0.0104,-0.0107,-0.0087,-0.0099,-0.0001,-0.0002,-0.0003,-0.0003,-0.0004,-0.0794,-0.0808,-0.0842,-0.0865,-0.0892,-0.0905,-0.0913,-0.0905,-0.0881,-0.0798,-0.0739,-0.0572,-0.0445,-0.0119,-0.0009,0.0105,0.0076,0.0102,0.0095,0.0086,0.0057,0.0057,0.0191,0.0191,0.0191,0.0191,0.0191,0,-0.0757,-0.0789,-0.0812,-0.0842,-0.0844,-0.0875,-0.0885,-0.0862,-0.0821,-0.0703,-0.0609,-0.0395,-0.0209,-0.006,0.0127,0.0196,0.0157,0.0212,0.0141,0.013,0.012,0.0087,0.0233,0.0233,0.0233,0.0233,0,0,-0.0744,-0.0756,-0.0767,-0.0777,-0.0801,-0.0802,-0.0804,-0.0766,-0.0683,-0.0554,-0.0405,-0.0277,-0.0126,0.0009,0.0081,0.0178,0.0132,0.0184,0.0147,0.0043,0.0032,0.0059,-0.0002,0,0,0,0,0]}],[{"header":{"parameterUnit":"m.s-1","parameterCategory":2,"la1":30.2991,"la2":30.254,"lo1":-89.0895,"lo2":-89.0444,"dy":0.0017,"dx":0.0017,"nx":28,"ny":28,"refTime":"2025-01-10T09:00:00:Z","depth":"4","parameterNumber":2,"parameterNumberName":"U-component_of_CURRENTS"},"data":[0,0,0,0,0,0,0,0,0,0,0,0,0,0,0,0,0,0,0,0,0,0,0,0,0,0,0,0,0,0,0,0,0,0,0,0,0,0,0,0,0,0,0,0,0,0,0,0,0,0,0,0,0,0,0,0,0,0,-0.1006,-0.1005,0,-0.098,-0.098,-0.0979,-0.0998,-0.0998,-0.0999,-0.0999,-0.1007,-0.1007,-0.1006,0,0,0,0,0,0,0,0,0,0,0,0,0,-0.1055,-0.1054,-0.1006,-0.1005,-0.1005,-0.098,-0.098,-0.0979,-0.0998,-0.0998,-0.0999,-0.1,-0.1007,-0.1007,-0.1006,0,0,0,0,0,0,0,0,0,0,0,0,0,-0.1034,-0.1054,-0.1006,-0.1009,-0.1009,-0.098,-0.098,-0.0979,-0.0997,-0.0998,-0.0999,-0.1,-0.1007,-0.1007,-0.1006,-0.0985,0,0,-0.1005,-0.1004,0,0,0,0,0,0,0,0,-0.1035,-0.1033,-0.1009,-0.1009,-0.1008,-0.0991,-0.0999,-0.0982,-0.0997,-0.1004,-0.0999,-0.1,-0.1002,-0.1002,-0.0998,-0.0986,-0.0986,-0.1005,-0.1004,-0.1004,-0.1004,0,0,0,0,0,0,0,-0.1037,-0.1034,-0.0998,-0.1008,-0.1008,-0.1006,-0.1004,-0.0996,-0.1001,-0.1004,-0.1004,-0.0997,-0.1003,-0.0999,-0.0999,-0.0986,-0.1005,-0.1004,-0.1004,-0.1004,-0.103,-0.1031,0,0,0,0,0,0,-0.1035,-0.1035,-0.0999,-0.0997,-0.1022,-0.1004,-0.1002,-0.0998,-0.1001,-0.1001,-0.0996,-0.0998,-0.0999,-0.0999,-0.0999,-0.1041,-0.1004,-0.1003,-0.1003,-0.1029,-0.103,-0.1031,0,0,0,0,0,0,-0.1036,-0.1032,-0.1,-0.1014,-0.1009,-0.1002,-0.0997,-0.0996,-0.1007,-0.0994,-0.0996,-0.1009,-0.1,-0.1,-0.1008,-0.1039,-0.1003,-0.1003,-0.1028,-0.103,-0.1031,-0.1083,0,0,0,0,0,0,-0.1038,-0.1033,-0.1034,-0.1013,-0.1008,-0.1001,-0.0995,-0.0995,-0.0999,-0.1002,-0.1005,-0.1006,-0.1001,-0.1009,-0.1007,-0.1038,-0.1002,-0.1027,-0.1029,-0.103,-0.108,-0.1086,-0.1091,0,0,0,0,0,-0.1039,-0.1039,-0.1034,-0.103,-0.1009,-0.1002,-0.1,-0.0999,-0.0999,-0.1011,-0.101,-0.1007,-0.1021,-0.1008,-0.1007,-0.1038,-0.1026,-0.1028,-0.103,-0.1077,-0.1085,-0.1091,0,0,0,0,0,0,-0.1064,-0.1039,-0.1035,-0.1028,-0.1023,-0.1004,-0.101,-0.1005,-0.1012,-0.1019,-0.1008,-0.1009,-0.1033,-0.1023,-0.101,-0.1052,-0.1027,-0.1029,-0.1063,-0.107,-0.1076,-0.1064,-0.1002,0,0,0,0,0,-0.1066,-0.1064,-0.1042,-0.1041,-0.1038,-0.1025,-0.1023,-0.1024,-0.1021,-0.1025,-0.1029,-0.1033,-0.1037,-0.1043,-0.1047,-0.1059,-0.1057,-0.1082,-0.1087,-0.1092,-0.1082,-0.1105,-0.1112,-0.1039,-0.1039,-0.1039,0,0,-0.1073,-0.1063,-0.106,-0.1047,-0.1042,-0.1042,-0.1028,-0.1034,-0.1048,-0.1024,-0.1054,-0.1052,-0.1044,-0.1067,-0.1078,-0.1065,-0.1117,-0.1095,-0.1099,-0.1086,-0.1108,-0.1115,-0.1122,-0.1041,-0.104,-0.104,0,0,-0.1078,-0.108,-0.1071,-0.1073,-0.1067,-0.1066,-0.107,-0.1066,-0.1082,-0.1103,-0.109,-0.1101,-0.1117,-0.1112,-0.1111,-0.1145,-0.1146,-0.1159,-0.1178,-0.1202,-0.1208,-0.1213,-0.1239,-0.1246,-0.1162,-0.1163,-0.1163,0,-0.1086,-0.1075,-0.1071,-0.1069,-0.1077,-0.1079,-0.1084,-0.1096,-0.1102,-0.1123,-0.1128,-0.1144,-0.1139,-0.1145,-0.1159,-0.1159,-0.1172,-0.1153,-0.1209,-0.1214,-0.1218,-0.1243,-0.125,-0.1165,-0.1165,-0.1165,-0.1164,0,-0.1073,-0.1079,-0.1081,-0.1082,-0.1096,-0.1106,-0.1119,-0.115,-0.1177,-0.119,-0.1223,-0.1207,-0.1223,-0.1222,-0.1199,-0.1225,-0.1225,-0.1215,-0.1191,-0.1229,-0.1253,-0.126,-0.1169,-0.1168,-0.1167,-0.1167,0,0,-0.1057,-0.1065,-0.1072,-0.1088,-0.1108,-0.1123,-0.1163,-0.1198,-0.1234,-0.1256,-0.1295,-0.1291,-0.1294,-0.1288,-0.1263,-0.126,-0.1307,-0.125,-0.125,-0.1275,-0.1368,-0.1241,-0.1236,-0.1312,-0.1313,-0.1314,-0.138,0,-0.105,-0.1057,-0.1066,-0.1102,-0.1114,-0.1151,-0.1191,-0.1236,-0.1278,-0.1324,-0.1323,-0.1348,-0.1318,-0.1323,-0.1324,-0.1307,-0.1323,-0.129,-0.1328,-0.1328,-0.121,-0.1238,-0.1317,-0.1384,-0.1386,-0.1387,-0.1388,0,-0.1032,-0.1047,-0.1069,-0.113,-0.114,-0.1169,-0.1254,-0.1286,-0.135,-0.1383,-0.141,-0.1418,-0.1422,-0.139,-0.14,-0.1385,-0.1386,-0.1365,-0.1368,-0.1228,-0.1212,-0.1334,-0.1399,-0.1398,-0.1397,-0.1396,-0.1396,0,-0.103,-0.1061,-0.1088,-0.1104,-0.116,-0.12,-0.1241,-0.1312,-0.1353,-0.1415,-0.1452,-0.1472,-0.1484,-0.1485,-0.146,-0.1448,-0.1461,-0.1454,-0.1342,-0.1335,-0.1408,-0.1401,-0.1471,-0.1471,-0.1471,-0.1471,-0.1471,0,-0.1017,-0.1047,-0.1095,-0.111,-0.1169,-0.1213,-0.1281,-0.1326,-0.1391,-0.1427,-0.1477,-0.1483,-0.1507,-0.1519,-0.1496,-0.1431,-0.1512,-0.134,-0.1336,-0.1431,-0.1427,-0.1414,-0.1406,-0.1473,-0.1473,-0.1472,-0.1472,0,-0.0999,-0.1026,-0.1067,-0.1135,-0.1163,-0.1209,-0.1294,-0.1333,-0.1402,-0.1446,-0.1468,-0.1521,-0.1513,-0.1523,-0.1518,-0.1463,-0.142,-0.1382,-0.1492,-0.1495,-0.1278,-0.1272,-0.1276,-0.1272,-0.1268,-0.1266,-0.1263,0,-0.0981,-0.0996,-0.1077,-0.1104,-0.1134,-0.1205,-0.1244,-0.1327,-0.1354,-0.1436,-0.1439,-0.1476,-0.149,-0.1389,-0.1408,-0.1377,-0.1343,-0.1343,-0.1287,-0.1258,-0.1255,-0.1255,-0.1255,-0.1258,-0.1257,-0.1256,-0.1255,0,-0.0948,-0.0985,-0.102,-0.1068,-0.1116,-0.1164,-0.122,-0.1236,-0.131,-0.1397,-0.1357,-0.1339,-0.1325,-0.1296,-0.1282,-0.1252,-0.1351,-0.1307,-0.1313,-0.126,-0.1236,-0.1236,-0.124,-0.1243,-0.1245,-0.1246,-0.1246,0,-0.0931,-0.0942,-0.0984,-0.1021,-0.1076,-0.1084,-0.113,-0.1139,-0.1175,-0.1255,-0.1234,-0.1253,-0.13,-0.1231,-0.1214,-0.1176,-0.1147,-0.1108,-0.1125,-0.1138,-0.1055,-0.1001,-0.0928,0,0,0,0,0,-0.0902,-0.0899,-0.0926,-0.0951,-0.0995,-0.1017,-0.1091,-0.1132,-0.121,-0.1142,-0.118,-0.1148,-0.1098,-0.1112,-0.1039,-0.1159,-0.1166,-0.1071,-0.1134,-0.1176,-0.119,-0.11,0,0,0,0,0,0,-0.088,-0.0905,-0.0902,-0.0878,-0.0871,-0.0901,-0.0939,-0.0991,-0.0955,-0.1034,-0.1006,-0.1067,-0.1034,-0.1107,-0.1008,-0.1014,-0.1027,-0.1094,-0.109,-0.1168,-0.1181,-0.1192,-0.1104,0,0,0,0,0]},{"header":{"parameterUnit":"m.s-1","parameterCategory":2,"la1":30.2991,"la2":30.254,"lo1":-89.0895,"lo2":-89.0444,"dy":0.0017,"dx":0.0017,"nx":28,"ny":28,"refTime":"2025-01-10T09:00:00:Z","depth":"4","parameterNumber":3,"parameterNumberName":"V-component_of_CURRENTS"},"data":[0,0,0,0,0,0,0,0,0,0,0,0,0,0,0,0,0,0,0,0,0,0,0,0,0,0,0,0,0,0,0,0,0,0,0,0,0,0,0,0,0,0,0,0,0,0,0,0,0,0,0,0,0,0,0,0,0,0,0.0228,0.0228,0,0.0209,0.0209,0.0209,0.0228,0.0229,0.0229,0.023,0.0276,0.0276,0.0277,0,0,0,0,0,0,0,0,0,0,0,0,0,0.0231,0.0232,0.0228,0.0228,0.0227,0.0209,0.0209,0.0209,0.0228,0.0229,0.023,0.0231,0.0276,0.0276,0.0277,0,0,0,0,0,0,0,0,0,0,0,0,0,0.0223,0.0232,0.0228,0.0235,0.0236,0.0209,0.0209,0.0209,0.0227,0.0229,0.023,0.0231,0.0275,0.0276,0.0277,0.0257,0,0,0.0279,0.0279,0,0,0,0,0,0,0,0,0.0223,0.0222,0.0234,0.0235,0.0235,0.0223,0.0227,0.0228,0.0227,0.023,0.023,0.0232,0.0263,0.0265,0.0257,0.0259,0.0261,0.0279,0.0279,0.028,0.028,0,0,0,0,0,0,0,0.0224,0.0223,0.022,0.0234,0.0235,0.0223,0.0223,0.0227,0.0241,0.023,0.0231,0.023,0.0264,0.0256,0.0259,0.0262,0.0279,0.028,0.028,0.028,0.0278,0.0277,0,0,0,0,0,0,0.0228,0.0224,0.022,0.0219,0.0233,0.0222,0.0223,0.0225,0.0239,0.0242,0.0229,0.0231,0.0255,0.0258,0.026,0.0272,0.028,0.028,0.0281,0.0278,0.0277,0.0277,0,0,0,0,0,0,0.0229,0.0228,0.0221,0.0221,0.022,0.0221,0.0223,0.0224,0.022,0.0238,0.0243,0.0225,0.0256,0.0259,0.0256,0.0273,0.0281,0.0281,0.0279,0.0278,0.0277,0.0273,0,0,0,0,0,0,0.0229,0.0229,0.0233,0.0222,0.022,0.0203,0.0222,0.0223,0.0218,0.022,0.0236,0.0242,0.0257,0.0254,0.0256,0.0274,0.0282,0.0279,0.0278,0.0277,0.0274,0.0273,0.0271,0,0,0,0,0,0.0229,0.0228,0.0233,0.0233,0.0226,0.0203,0.02,0.0205,0.0216,0.0207,0.0215,0.0241,0.0251,0.0254,0.0256,0.0275,0.028,0.0279,0.0277,0.0275,0.0273,0.0271,0,0,0,0,0,0,0.0227,0.0229,0.0235,0.0234,0.022,0.0206,0.0201,0.0201,0.0197,0.0204,0.0224,0.0229,0.0233,0.0244,0.0247,0.0269,0.0274,0.0273,0.0271,0.0269,0.0268,0.0277,0.0282,0,0,0,0,0,0.0229,0.0234,0.0224,0.0222,0.0215,0.0206,0.0199,0.0198,0.0193,0.0193,0.0205,0.0219,0.0228,0.024,0.0243,0.025,0.0258,0.0266,0.0264,0.0263,0.0271,0.03,0.0303,0.0273,0.0273,0.0273,0,0,0.0229,0.0229,0.0233,0.0222,0.0213,0.0199,0.0205,0.0189,0.0188,0.0198,0.0202,0.0207,0.0223,0.0232,0.0237,0.0248,0.0266,0.0262,0.0261,0.0269,0.0299,0.0302,0.0305,0.0273,0.0273,0.0273,0,0,0.0221,0.0228,0.0225,0.0212,0.0197,0.019,0.0185,0.017,0.0177,0.0169,0.0184,0.0197,0.0202,0.0229,0.0241,0.0232,0.025,0.0232,0.0247,0.0275,0.0278,0.0281,0.026,0.0261,0.0243,0.0243,0.0243,0,0.0218,0.0217,0.0217,0.0203,0.0195,0.0187,0.0172,0.0172,0.016,0.0169,0.0171,0.019,0.0209,0.0236,0.0237,0.0235,0.023,0.0255,0.0275,0.0279,0.0282,0.026,0.0262,0.0243,0.0243,0.0243,0.0243,0,0.0204,0.0202,0.0194,0.0184,0.0172,0.0154,0.0152,0.0147,0.0154,0.0161,0.0178,0.0194,0.0211,0.0224,0.0231,0.0265,0.0243,0.0262,0.0284,0.0285,0.0261,0.0262,0.0242,0.0242,0.0243,0.0243,0,0,0.019,0.0189,0.0184,0.0172,0.016,0.0138,0.0146,0.0145,0.0139,0.016,0.0167,0.0206,0.0216,0.023,0.0246,0.0283,0.0295,0.0283,0.0285,0.0269,0.0316,0.028,0.0279,0.0318,0.032,0.032,0.0277,0,0.0175,0.0158,0.0162,0.0133,0.0117,0.0117,0.0114,0.0116,0.0123,0.0125,0.0179,0.0179,0.022,0.0214,0.0264,0.0279,0.0305,0.0303,0.0312,0.0312,0.0287,0.0283,0.0324,0.0279,0.0279,0.0279,0.028,0,0.015,0.0144,0.013,0.0102,0.0093,0.0076,0.0059,0.0053,0.0074,0.0081,0.0119,0.0138,0.0191,0.0217,0.0282,0.0274,0.0296,0.0318,0.0317,0.0293,0.0281,0.0285,0.0283,0.0283,0.0283,0.0282,0.0282,0,0.0128,0.0107,0.01,0.0091,0.007,0.0059,0.0041,0.0043,0.0022,0.0047,0.0027,0.0105,0.0105,0.0184,0.0232,0.0253,0.0283,0.0319,0.0307,0.0302,0.035,0.0348,0.0368,0.0368,0.0369,0.0369,0.0369,0,0.0105,0.0086,0.0085,0.0073,0.0028,0.0027,-0.0021,-0.0026,-0.0038,-0.0075,-0.0004,-0.0023,0.0097,0.0127,0.0205,0.0245,0.0263,0.0304,0.03,0.0341,0.0339,0.0349,0.0347,0.0367,0.0367,0.0368,0.0368,0,0.0079,0.0087,0.0056,0.0036,0.0017,-0.0021,-0.0088,-0.0132,-0.0127,-0.0175,-0.0175,-0.0135,-0.0088,0.0011,0.0104,0.0171,0.0237,0.0244,0.0233,0.0229,0.024,0.0239,0.0238,0.0237,0.0236,0.0235,0.0234,0,0.0066,0.006,0.002,-0.0025,-0.0041,-0.0097,-0.0155,-0.0177,-0.0223,-0.025,-0.0282,-0.0255,-0.0212,-0.0112,0.0006,0.0135,0.0167,0.0184,0.0275,0.0236,0.0233,0.0233,0.0233,0.0232,0.0232,0.0232,0.0231,0,0.0036,0.003,-0.0001,-0.0079,-0.0149,-0.0224,-0.0295,-0.0332,-0.0361,-0.0366,-0.0371,-0.0304,-0.0267,-0.0137,-0.0059,0.0047,0.0178,0.0173,0.0178,0.0264,0.0229,0.0226,0.0228,0.0227,0.0228,0.0228,0.0228,0,-0.0002,-0.0031,-0.007,-0.0152,-0.0241,-0.0324,-0.0352,-0.0403,-0.0436,-0.0438,-0.0449,-0.0369,-0.0321,-0.019,-0.011,-0.0016,0.0038,0.0095,0.0105,0.011,0.0106,0.0045,-0.0019,0,0,0,0,0,-0.0034,-0.0073,-0.015,-0.0235,-0.0323,-0.0359,-0.0444,-0.0459,-0.0478,-0.0489,-0.0457,-0.0407,-0.0279,-0.0227,-0.0135,-0.0124,0.0046,-0.0015,0.0115,0.0205,0.021,0.0227,0,0,0,0,0,0,-0.006,-0.0119,-0.0155,-0.0287,-0.0346,-0.0439,-0.0481,-0.0493,-0.0482,-0.0477,-0.0406,-0.0372,-0.0245,-0.0316,-0.0123,-0.01,-0.0004,0.0046,0.0048,0.0202,0.0207,0.021,0.023,0,0,0,0,0]}]]